Regional Weather Roundup
Issued by NWS

Home | Current Version | Previous Version | Graphics & Text | Print | Product List | Glossary On
Versions: 1 2 3 4 5 6 7 8 9 10 11 12 13 14 15 16 17 18 19 20 21 22 23 24 25 26 27 28 29 30 31 32 33 34 35 36 37 38 39 40 41 42 43 44 45 46 47 48 49 50
000
ASUS43 KMKX 261321
RWRWI

WISCONSIN REGIONAL WEATHER ROUNDUP
NATIONAL WEATHER SERVICE MILWAUKEE/SULLIVAN WI
800 AM CDT THU MAY 26 2016

NOTE: "FAIR" INDICATES FEW OR NO CLOUDS BELOW 12,000 FEET WITH NO
SIGNIFICANT WEATHER AND/OR OBSTRUCTIONS TO VISIBILITY.

WIZ001-002-006>008-014>016-023>028-261400-
NORTHWEST WISCONSIN

CITY           SKY/WX    TMP DP  RH WIND       PRES   REMARKS
SUPERIOR ARPT  FOG       43  43 100 NE5       29.82F VSB 1/4
ASHLAND        FOG       52  52 100 CALM      29.82R VSB 1/2
HAYWARD        CLOUDY    60  58  92 S6        29.82R FOG
SIREN          FOG       58  57  99 CALM      29.79S VSB 1/4
CUMBERLAND     CLOUDY    59  59 100 CALM      29.81R FOG
RICE LAKE      CLOUDY    61  60  96 CALM      29.82R
CHETEK         CLOUDY    61  61 100 CALM      29.81R FOG
LADYSMITH      CLOUDY    63  62  97 CALM      29.83R FOG
EAU CLAIRE     CLOUDY    62  59  90 CALM      29.78R
MENOMONIE      CLOUDY    61  61 100 NW7       29.80R
NEW RICHMOND   CLOUDY    63  61  94 SW3       29.81R
OSCEOLA        CLOUDY    63  63 100 CALM      29.82R
$$

WIZ003>005-009-010-017-018-261400-
NORTH CENTRAL WISCONSIN

CITY           SKY/WX    TMP DP  RH WIND       PRES   REMARKS
MANITOWISH WTR NOT AVBL
ARBOR VITAE    CLOUDY    62  61  96 CALM      29.83R
WOODRUFF       CLOUDY    62  61  96 CALM      29.83R
RHINELANDER    CLOUDY    63  62  97 SE3       29.85R FOG
EAGLE RIVER      N/A     61  60  96 CALM      29.84R
LAND O LAKES   CLOUDY    62  60  94 W3        29.84S
PHILLIPS       CLOUDY    61  61 100 CALM      29.81R FOG
TOMAHAWK       FOG       62  61  97 CALM      29.83F VSB 1
MEDFORD        RAIN      61  61 100 SW10G18   29.84S
MERRILL        CLOUDY    62  62 100 CALM      29.85R FOG
$$

WIZ029-030-035-036-043>047-261400-
CENTRAL WISCONSIN

CITY           SKY/WX    TMP DP  RH WIND       PRES   REMARKS
WAUSAU         LGT RAIN  63  32  31 SW9       29.85R
MOSINEE        TSTM      61  61 100 SW15      29.89R VSB 1
MARSHFIELD     RAIN      61  59  93 SE6       29.86F FOG
STEVENS POINT  RAIN      60  60 100 SW17G25   29.89R
WAUPACA        FOG       63  62  97 CALM      29.86F VSB 1/4
WAUTOMA        RAIN      61  59  94 E7        29.86F FOG
WISC RAPIDS    RAIN      60  58  92 CALM      29.87F FOG
CAMP DOUGLAS   LGT RAIN  61  61 100 E7        29.81F
$$

WIZ011>013-019>022-031-037>040-048>050-261400-
NORTHEAST WISCONSIN

CITY           SKY/WX    TMP DP  RH WIND       PRES   REMARKS
ANTIGO         FOG       61  61 100 CALM      29.87R VSB 1
SHAWANO        CLOUDY    64  63  96 S3        29.87R FOG
OCONTO         CLOUDY    62  62 100 S3        29.86R VSB 3/4
STURGEON BAY   NOT AVBL
GREEN BAY      CLOUDY    64  63  96 CALM      29.85S FOG
MANITOWOC      FOG       58  57  97 E3        29.87S VSB 1/4
APPLETON       PTSUNNY   63  63 100 CALM      29.85S FOG
CLINTONVILLE   FOG       63  61  94 CALM      29.85S VSB 1
OSHKOSH        CLOUDY    66  63  90 SW3       29.85S
$$

WIZ032>034-041-042-053>061-261400-
SOUTHWEST WISCONSIN

CITY           SKY/WX    TMP DP  RH WIND       PRES   REMARKS
LA CROSSE      CLOUDY    62  60  93 SW9       29.81F
SPARTA         CLOUDY    60  60 100 CALM      29.81F
VIROQUA        CLOUDY    61  60  97 CALM      29.84R
BOSCOBEL       CLOUDY    66  61  84 SW3       29.84R
PRAIRIE DU CHI PTSUNNY   61  60  96 CALM      29.84R
PLATTEVILLE    CLOUDY    64  60  87 NW6       29.87R
$$

WIZ056-057-062-063-064-067-068-261400-
SOUTH CENTRAL WISCONSIN

CITY           SKY/WX    TMP DP  RH WIND       PRES   REMARKS
REEDSBURG      CLOUDY    63  62  96 N5        29.82F
BARABOO/DELLS  DRIZZLE   64  61  89 NW3       29.82F
LONE ROCK      CLOUDY    68  61  78 VRB3      29.83F
MINERAL POINT  CLOUDY    66  61  82 NW5       29.86R
MADISON        LGT RAIN  66  61  84 VRB3      29.84F
MIDDLETON      CLOUDY    66  62  85 NW6       29.85F
WATERTOWN      TSTM      66  66 100 SW18G25   29.92R
MONROE         CLOUDY    63  59  88 CALM      29.87F
JANESVILLE     PTSUNNY   66  64  94 W10       29.90R
$$

WIZ051-052-058>065-066-070>072-261400-
SOUTHEAST WISCONSIN

CITY           SKY/WX    TMP DP  RH WIND       PRES   REMARKS
MILWAUKEE      PTSUNNY   70  66  87 S10       29.88F
WAUKESHA       MOSUNNY   68  64  88 S9        29.89S FOG
MILWAUKEE/TIMM SUNNY     70  64  83 S6        29.87F
RACINE         PTSUNNY   69  64  84 S8        29.91F
BURLINGTON     PTSUNNY   68  66  92 S7        29.89S
KENOSHA        CLOUDY    70  66  87 SW9       29.90S
FOND DU LAC    CLOUDY    68  65  90 SW7       29.86S
SHEBOYGAN      PTSUNNY   67  65  93 S8        29.86F
WEST BEND      MOSUNNY   68  66  94 CALM      29.87S
JUNEAU         PTSUNNY   66  64  94 SW17      29.91R THUNDER
$$

LSZ147-162-261400-
LAKE SUPERIOR

STATION/POSITION TIME  TEMP    WIND        PRES    WAVE
                       AIR SEA DIR/SP/G            HT/PER
                 (UTC) (F)     (DEG/KT/KT) (MB)    (FT/S)
W MID LAKE BUOY  1250   41 38   50/  6/  6 1010.6F   1/ 4
DEVILS ISLAND    1300   43      70/  9/  9 1010.0F
SAXON HARBOR     1200   48      20/  2/  3 1009.8R
$$

LMZ867-665-643>646-261400-
LAKE MICHIGAN

STATION/POSITION TIME  TEMP    WIND        PRES    WAVE
                       AIR SEA DIR/SP/G            HT/PER
                 (UTC) (F)     (DEG/KT/KT) (MB)    (FT/S)
CHAMBERS ISLAND  1200   57     170/  3/  7 1011.2R
N MID LAKE BUOY  1250   50 45  210/ 14/ 16 1011.0S   1/ 3
NORTHPORT PIER   1200   55     180/  4/ 10 1010.8S
SISTER BAY       1235   57     140/  2/  6   N/A
ALGOMA LAKESHORE 1117             CALM       N/A
KEWAUNEE LAKESHO 1200   49     170/  5/  7 1010.8R
SHEBOYGAN LAKESH 1300   56     160/ 12/ 12 1011.6F
PORT WASHINGTON  1200   55     190/  7/  8 1012.9R
S MID LAKE BUOY  1250   54 49  160/ 12/ 12 1012.6F   2/ 4
KENOSHA   LAKESH 1300   60     190/  8/ 11 1012.2S
$$

TC  - TEMPERATURE IN CELSIUS
VSB - VISIBILITY IN STATUTE MILES
WCI - WIND CHILL INDEX
HX  - HEAT INDEX




USA.gov is the U.S. government's official web portal to all federal, state and local government web resources and services.